Weather History for Menomonie, WI

Change the Weather History Date:

Friday, August 30, 2013

  Actual Average (KEAU) Record (KEAU)
Temperature  
Mean Temperature 76 °F 67 °F  
Max Temperature 84 °F 78 °F 97 °F (1941)
Min Temperature 67 °F 56 °F 36 °F (1915)
Degree Days  
Heating Degree Days 0 2  
Month to date heating degree days 28  
Since 1 June heating degree days 101  
Since 1 July heating degree days 39  
Cooling Degree Days 11 4  
Month to date cooling degree days 157  
Year to date cooling degree days 523  
Since 1 June cooling degree days 491  
Growing Degree Days 26 (Base 50)    
Moisture  
Dew Point 65 °F    
Average Humidity 65    
Maximum Humidity 92    
Minimum Humidity 41    
Precipitation  
Precipitation 0.04 in 0.13 in 2.04 in (1962)
Month to date precipitation 4.34  
Year to date precipitation 21.99  
Snow  
Snow 0.00 in 0.00 in 0.00 in ()
Month to date snowfall 0.0  
Since 1 June snowfall 0.0  
Since 1 July snowfall 0.0  
Snow Depth -    
Sea Level Pressure  
Sea Level Pressure 29.88 in    
Wind  
Wind Speed 7 mph (North)    
Max Wind Speed 15 mph    
Max Gust Speed 26 mph    
Visibility 10 miles    
Events Rain , Thunderstorm    
T = Trace of Precipitation, MM = Missing Value Source: NWS Daily Summary

Daily Weather History Graph

Daily Weather History Graph

Search for Another Location

Airport:

Trip Planner

Search our weather history database for the weather conditions in past years. The results will help you decide how hot, cold, wet, or windy it might be!

Date:

Astronomy

Aug. 30, 2013 Rise Set
Actual Time 6:27 AM CDT 7:47 PM CDT
Civil Twilight 5:57 AM CDT 8:17 PM CDT
Nautical Twilight 5:20 AM CDT 8:54 PM CDT
Astronomical Twilight 4:41 AM CDT 9:33 PM CDT
Moon 12:58 AM CDT (8/30) 4:11 PM CDT (8/30)
Length of Visible Light 14h 20m
Length of Day
13h 19m
Waning Crescent, 29% of the Moon is Illuminated
Aug 30
Waning Crescent
Sep 5
New
Sep 12
First Quarter
Sep 19
Full
Sep 26
Last Quarter

Hourly Weather History & Observations

Time (CDT) Temp. Heat Index Dew Point Humidity Pressure Visibility Wind Dir Wind Speed Gust Speed Precip Events Conditions
12:15 AM 78.6 °F - 68.0 °F 70% 29.88 in 10.0 mi SSE 5.8 mph - N/A   Scattered Clouds
12:35 AM 78.6 °F - 68.0 °F 70% 29.87 in 10.0 mi South 8.1 mph - N/A   Clear
12:55 AM 78.3 °F - 68.0 °F 71% 29.88 in 10.0 mi South 3.5 mph - N/A   Clear
1:15 AM 77.9 °F - 68.0 °F 71% 29.88 in 10.0 mi South 4.6 mph - N/A   Clear
1:35 AM 79.0 °F - 68.5 °F 70% 29.87 in 10.0 mi South 5.8 mph - N/A   Clear
1:55 AM 78.8 °F - 68.9 °F 72% 29.87 in 10.0 mi SW 4.6 mph - N/A   Clear
2:15 AM 78.4 °F - 68.9 °F 72% 29.88 in 10.0 mi SW 5.8 mph - N/A Thunderstorm Clear
2:35 AM 77.9 °F - 68.7 °F 73% 29.85 in 10.0 mi SSW 3.5 mph - N/A   Scattered Clouds
2:55 AM 77.5 °F - 68.5 °F 74% 29.84 in 10.0 mi SW 4.6 mph - N/A Thunderstorm Thunderstorm
3:15 AM 77.2 °F - 69.8 °F 78% 29.85 in 10.0 mi West 5.8 mph - N/A Rain Rain
3:35 AM 75.6 °F - 70.9 °F 85% 29.85 in 10.0 mi West 10.4 mph - 0.01 in Rain Light Rain
3:55 AM 74.5 °F - 70.7 °F 88% 29.83 in 10.0 mi SSW 15.0 mph - 0.04 in Rain Light Rain
4:15 AM 75.7 °F - 71.8 °F 87% 29.82 in 10.0 mi WSW 11.5 mph - N/A   Clear
4:35 AM 75.6 °F - 70.9 °F 85% 29.82 in 10.0 mi SW 4.6 mph - N/A   Clear
4:55 AM 74.5 °F - 70.7 °F 88% 29.82 in 10.0 mi Calm Calm - N/A   Clear
5:35 AM 74.3 °F - 70.9 °F 89% 29.82 in 10.0 mi Calm Calm - N/A   Scattered Clouds
6:15 AM 73.4 °F - 71.1 °F 92% 29.83 in 10.0 mi Calm Calm - N/A   Clear
6:35 AM 74.3 °F - 70.9 °F 89% 29.83 in 10.0 mi West 3.5 mph - N/A   Clear
6:55 AM 74.1 °F - 70.7 °F 89% 29.84 in 10.0 mi Calm Calm - N/A   Clear
7:55 AM 74.7 °F - 71.4 °F 90% 29.85 in 10.0 mi NNW 4.6 mph - N/A   Scattered Clouds
9:15 AM 75.4 °F - 69.6 °F 82% 29.88 in 10.0 mi NNW 8.1 mph - N/A   Overcast
9:35 AM 75.6 °F - 69.1 °F 80% 29.88 in 10.0 mi NNW 9.2 mph - N/A   Overcast
9:55 AM 75.2 °F - 69.1 °F 81% 29.89 in 10.0 mi NNW 11.5 mph - N/A   Overcast
10:15 AM 75.0 °F - 68.7 °F 81% 29.90 in 10.0 mi NW 12.7 mph - N/A   Overcast
10:35 AM 75.0 °F - 68.0 °F 79% 29.90 in 10.0 mi NNW 11.5 mph - N/A   Overcast
10:55 AM 76.6 °F - 66.7 °F 71% 29.90 in 10.0 mi NNW 11.5 mph - N/A   Scattered Clouds
11:15 AM 78.4 °F - 65.8 °F 65% 29.91 in 10.0 mi NNW 11.5 mph 18.4 mph N/A   Mostly Cloudy
11:35 AM 78.1 °F - 64.8 °F 63% 29.91 in 10.0 mi North 10.4 mph - N/A   Overcast
11:55 AM 78.6 °F - 64.6 °F 62% 29.91 in 10.0 mi NNW 12.7 mph - N/A   Mostly Cloudy
12:15 PM 79.7 °F - 63.7 °F 58% 29.91 in 10.0 mi NNW 9.2 mph 26.5 mph N/A   Mostly Cloudy
12:35 PM 80.1 °F 81.5 °F 63.1 °F 56% 29.91 in 10.0 mi NNE 10.4 mph - N/A   Mostly Cloudy
12:55 PM 80.8 °F 81.9 °F 62.1 °F 53% 29.91 in 10.0 mi North 9.2 mph 18.4 mph N/A   Mostly Cloudy
1:15 PM 81.1 °F 82.1 °F 62.1 °F 52% 29.91 in 10.0 mi NNW 13.8 mph 19.6 mph N/A   Scattered Clouds
1:35 PM 81.5 °F 82.5 °F 62.1 °F 52% 29.91 in 10.0 mi North 9.2 mph - N/A   Scattered Clouds
1:55 PM 81.0 °F 81.8 °F 61.3 °F 51% 29.91 in 10.0 mi NNE 10.4 mph 18.4 mph N/A   Mostly Cloudy
2:15 PM 82.2 °F 82.7 °F 61.0 °F 48% 29.91 in 10.0 mi NNE 13.8 mph 18.4 mph N/A   Scattered Clouds
2:35 PM 83.3 °F 83.9 °F 61.5 °F 48% 29.91 in 10.0 mi NNE 8.1 mph - N/A   Scattered Clouds
2:55 PM 83.3 °F 84.1 °F 62.1 °F 49% 29.90 in 10.0 mi NE 9.2 mph 17.3 mph N/A   Scattered Clouds
3:15 PM 84.0 °F 84.5 °F 62.1 °F 47% 29.90 in 10.0 mi North 10.4 mph - N/A   Scattered Clouds
3:35 PM 83.7 °F 84.3 °F 62.2 °F 48% 29.89 in 10.0 mi NNW 6.9 mph - N/A   Scattered Clouds
3:55 PM 84.9 °F 85.2 °F 61.7 °F 45% 29.89 in 10.0 mi NNE 8.1 mph - N/A   Scattered Clouds
4:15 PM 84.2 °F 84.4 °F 60.8 °F 45% 29.88 in 10.0 mi NNE 8.1 mph - N/A   Scattered Clouds
4:35 PM 84.6 °F 84.2 °F 59.4 °F 42% 29.88 in 10.0 mi NNE 6.9 mph - N/A   Clear
4:55 PM 84.6 °F 84.2 °F 59.2 °F 42% 29.88 in 10.0 mi North 8.1 mph 16.1 mph N/A   Clear
5:15 PM 84.6 °F 84.2 °F 59.4 °F 42% 29.88 in 10.0 mi North 10.4 mph - N/A   Clear
5:35 PM 84.4 °F 84.0 °F 59.0 °F 42% 29.88 in 10.0 mi NNE 8.1 mph - N/A   Clear
5:55 PM 84.2 °F 83.7 °F 58.3 °F 41% 29.88 in 10.0 mi NNE 9.2 mph - N/A   Clear
6:15 PM 83.5 °F 83.4 °F 59.2 °F 44% 29.88 in 10.0 mi North 10.4 mph - N/A   Clear
6:35 PM 82.6 °F 82.6 °F 59.0 °F 45% 29.88 in 10.0 mi North 8.1 mph - N/A   Clear
6:55 PM 81.9 °F 82.1 °F 59.4 °F 46% 29.88 in 10.0 mi NNE 8.1 mph - N/A   Clear
7:15 PM 80.8 °F 81.3 °F 59.2 °F 48% 29.88 in 10.0 mi NNE 9.2 mph - N/A   Clear
7:35 PM 79.3 °F - 59.5 °F 51% 29.88 in 10.0 mi NNE 6.9 mph - N/A   Clear
7:55 PM 77.7 °F - 60.1 °F 54% 29.89 in 10.0 mi NNE 5.8 mph - N/A   Clear
8:15 PM 76.8 °F - 60.1 °F 56% 29.89 in 10.0 mi NE 5.8 mph - N/A   Clear
8:35 PM 73.8 °F - 61.3 °F 65% 29.90 in 10.0 mi Calm Calm - N/A   Clear
8:55 PM 74.3 °F - 60.8 °F 63% 29.90 in 10.0 mi Calm Calm - N/A   Clear
9:15 PM 74.5 °F - 60.3 °F 61% 29.91 in 10.0 mi NNE 4.6 mph - N/A   Clear
9:35 PM 73.8 °F - 61.3 °F 65% 29.91 in 10.0 mi NNE 9.2 mph - N/A   Clear
9:55 PM 73.0 °F - 62.1 °F 68% 29.90 in 10.0 mi NE 5.8 mph - N/A   Clear
10:15 PM 71.6 °F - 62.2 °F 72% 29.90 in 10.0 mi NE 5.8 mph - N/A   Clear
10:35 PM 71.1 °F - 62.6 °F 75% 29.91 in 10.0 mi NNE 5.8 mph - N/A   Clear
10:55 PM 70.5 °F - 62.2 °F 75% 29.91 in 10.0 mi NE 6.9 mph - N/A   Clear
11:15 PM 69.8 °F - 61.9 °F 76% 29.91 in 10.0 mi NE 6.9 mph - N/A   Clear
11:35 PM 68.2 °F - 61.7 °F 80% 29.91 in 10.0 mi ENE 5.8 mph - N/A   Clear
11:55 PM 67.3 °F - 61.9 °F 83% 29.90 in 10.0 mi ENE 4.6 mph - N/A   Clear